Find WorldView Legion 6

NORAD ID: 62901 Int'l Des: 2025-025 Owner: MAXARI Country: US operational
LEOCIRCULAR

实时位置

正在加载3D地球...

关于 WorldView Legion 6

正在加载描述...

即将过境

Passes for default location (London). Set your location on the main map for personalized predictions.

高度历史

Loading altitude history...

两行轨道根数

1 62901U 25025B 26105.25617334 .00001443 00000-0 88524-4 0 9990
2 62901 45.0008 187.8964 0006375 131.7156 228.4269 15.15530233 66086
Epoch: Apr 15, 2026 • Age: 10 hours

当前状态

高度 521.8 km
速度 7.60 km/s
星下点 3.38°N, 110.42°E
发射日期 Feb 4, 2025
运行时间 1.1 years
类型 earth observation

技术详情

分类 Payload
质量 700.00 kg
干质量 630.00 kg
总质量 700.00 kg
长度 3.00 m
直径 2.00 m
跨度 5.00 m
形状 Box + panel
制造商 MAXSI
平台类型 Legion
阶段状态 In Orbit
所有者/国家 MAXARI/US

Most Searched